Location: Byhalia Creek
(34.8270°N, 89.8040°W)
Time: 16:52:15
(UTC+00:00)

CRYOSAT 2 - Pass Details

Date: 22 April 2026
Orbit: 718 x 721 km, 92.0° (Epoch: 9 May)

Event Time Altitude Azimuth Distance (km) Brightness Sun altitude
Exits shadow 09:34:30 31° 189° (S) 1,247 5.2 -20.4°
Maximum altitude 09:36:48 70° 266° (W) 764 4.2 -20.0°
Drops below altitude 10° 09:41:41 10° 350° (N) 2,211 7.1 -19.1°
Sets 09:43:59 0° 353° (N) 3,134 8.0 -18.7°
